| time (UTC) | temp F | wind direction | speed MPH | gust MPH | rain 1hr in | rain 24hr in | rain mn in | humidity % | barometer mb |
| 20260906123004 | 60 | 303 | 2.0 | 7.0 | 0.04 | 0.37 | 0.28 | 94 | 1021.4 |
| 20260906122504 | 60 | 313 | 2.0 | 10.0 | 0.04 | 0.39 | 0.28 | 94 | 1021.3 |
| 20260906122004 | 60 | 305 | 4.0 | 17.0 | 0.04 | 0.40 | 0.28 | 92 | 1021.3 |
| 20260906121505 | 60 | 297 | 4.0 | 17.0 | 0.04 | 0.41 | 0.27 | 91 | 1021.4 |
| 20260906121004 | 61 | 286 | 4.0 | 13.0 | 0.04 | 0.41 | 0.27 | 93 | 1021.2 |
| 20260906120504 | 60 | 280 | 4.0 | 10.0 | 0.04 | 0.41 | 0.27 | 95 | 1021.3 |
| 20260906120025 | 60 | 285 | 4.0 | 14.0 | 0.04 | 0.41 | 0.27 | 95 | 1021.2 |
| 20260906115504 | 59 | 290 | 5.0 | 14.0 | 0.04 | 0.41 | 0.27 | 92 | 1021.2 |
| 20260906115004 | 60 | 290 | 5.0 | 14.0 | 0.02 | 0.40 | 0.26 | 89 | 1021.2 |
| 20260906114505 | 60 | 291 | 4.0 | 13.0 | 0.00 | 0.38 | 0.24 | 87 | 1021.0 |
| 20260906114004 | 60 | 274 | 5.0 | 19.0 | 0.00 | 0.38 | 0.24 | 86 | 1021.0 |
| 20260906113504 | 61 | 283 | 5.0 | 19.0 | 0.00 | 0.38 | 0.24 | 83 | 1020.8 |
| 20260906113004 | 62 | 285 | 3.0 | 14.0 | 0.00 | 0.38 | 0.24 | 79 | 1020.7 |
| 20260906112504 | 63 | 275 | 3.0 | 9.0 | 0.00 | 0.38 | 0.24 | 80 | 1020.8 |
| 20260906112004 | 62 | 296 | 4.0 | 15.0 | 0.00 | 0.38 | 0.24 | 85 | 1020.7 |
| 20260906111503 | 61 | 295 | 5.0 | 15.0 | 0.00 | 0.38 | 0.24 | 81 | 1020.5 |
| 20260906111005 | 62 | 291 | 6.0 | 15.0 | 0.00 | 0.38 | 0.24 | 81 | 1020.5 |
| 20260906110504 | 62 | 291 | 7.0 | 18.0 | 0.00 | 0.38 | 0.24 | 80 | 1020.5 |
| 20260906110025 | 62 | 292 | 7.0 | 18.0 | 0.00 | 0.38 | 0.24 | 81 | 1020.3 |
| 20260906105505 | 63 | 295 | 7.0 | 15.0 | 0.00 | 0.39 | 0.24 | 78 | 1020.4 |
| 20260906105004 | 65 | 284 | 6.0 | 15.0 | 0.00 | 0.39 | 0.24 | 76 | 1020.3 |
| 20260906104505 | 65 | 274 | 5.0 | 16.0 | 0.00 | 0.39 | 0.24 | 79 | 1020.4 |
| 20260906104005 | 63 | 291 | 6.0 | 19.0 | 0.00 | 0.39 | 0.24 | 79 | 1020.1 |
| 20260906103504 | 62 | 286 | 6.0 | 19.0 | 0.00 | 0.39 | 0.24 | 82 | 1020.1 |
| 20260906103026 | 62 | 284 | 7.0 | 19.0 | 0.00 | 0.39 | 0.24 | 82 | 1020.1 |
| 20260906102505 | 62 | 283 | 8.0 | 19.0 | 0.00 | 0.39 | 0.24 | 80 | 1020.1 |
| 20260906102004 | 64 | 278 | 6.0 | 17.0 | 0.00 | 0.39 | 0.24 | 79 | 1019.9 |
| 20260906101503 | 64 | 285 | 5.0 | 17.0 | 0.00 | 0.39 | 0.24 | 84 | 1019.8 |
| 20260906101005 | 63 | 290 | 5.0 | 17.0 | 0.00 | 0.39 | 0.24 | 81 | 1019.7 |
| 20260906100504 | 61 | 287 | 6.0 | 17.0 | 0.00 | 0.39 | 0.24 | 84 | 1019.7 |
| 20260906100026 | 61 | 290 | 7.0 | 23.0 | 0.00 | 0.39 | 0.24 | 82 | 1019.6 |
| 20260906095505 | 62 | 283 | 7.0 | 23.0 | 0.00 | 0.39 | 0.24 | 81 | 1019.5 |
| 20260906095004 | 61 | 280 | 5.0 | 14.0 | 0.00 | 0.39 | 0.24 | 83 | 1019.6 |
| 20260906094505 | 62 | 289 | 5.0 | 16.0 | 0.00 | 0.42 | 0.24 | 84 | 1019.4 |
| 20260906094003 | 62 | 292 | 5.0 | 16.0 | 0.00 | 0.44 | 0.24 | 84 | 1019.3 |
| 20260906093525 | 63 | 291 | 5.0 | 14.0 | 0.00 | 0.44 | 0.24 | 83 | 1019.3 |
| 20260906093004 | 64 | 293 | 6.0 | 15.0 | 0.00 | 0.44 | 0.24 | 80 | 1019.1 |
| 20260906092504 | 63 | 289 | 5.0 | 15.0 | 0.00 | 0.44 | 0.24 | 83 | 1019.0 |
| 20260906092004 | 62 | 292 | 4.0 | 15.0 | 0.00 | 0.44 | 0.24 | 84 | 1018.9 |
| 20260906091505 | 62 | 286 | 4.0 | 15.0 | 0.00 | 0.45 | 0.24 | 86 | 1019.2 |
| 20260906091005 | 63 | 275 | 3.0 | 11.0 | 0.00 | 0.45 | 0.24 | 85 | 1019.1 |
| 20260906090525 | 62 | 288 | 3.0 | 11.0 | 0.00 | 0.46 | 0.24 | 89 | 1019.0 |
| 20260906090004 | 60 | 286 | 5.0 | 13.0 | 0.00 | 0.47 | 0.24 | 88 | 1018.9 |
| 20260906085505 | 61 | 282 | 5.0 | 16.0 | 0.00 | 0.48 | 0.24 | 86 | 1019.0 |
| 20260906085004 | 61 | 265 | 6.0 | 16.0 | 0.00 | 0.48 | 0.24 | 85 | 1018.6 |
| 20260906084504 | 61 | 268 | 7.0 | 22.0 | 0.00 | 0.48 | 0.24 | 83 | 1018.6 |
| 20260906084004 | 61 | 284 | 7.0 | 22.0 | 0.00 | 0.48 | 0.24 | 83 | 1018.5 |
| 20260906083504 | 62 | 289 | 6.0 | 18.0 | 0.00 | 0.48 | 0.24 | 80 | 1018.4 |
| 20260906083005 | 62 | 278 | 6.0 | 18.0 | 0.00 | 0.48 | 0.24 | 81 | 1018.2 |
| 20260906082504 | 61 | 273 | 6.0 | 18.0 | 0.00 | 0.48 | 0.24 | 79 | 1018.3 |
| 20260906082004 | 63 | 284 | 4.0 | 16.0 | 0.00 | 0.48 | 0.24 | 78 | 1018.2 |
| 20260906081503 | 62 | 284 | 5.0 | 16.0 | 0.00 | 0.48 | 0.24 | 84 | 1018.0 |
| 20260906081005 | 61 | 283 | 5.0 | 16.0 | 0.00 | 0.48 | 0.24 | 81 | 1017.9 |
| 20260906080504 | 62 | 283 | 6.0 | 21.0 | 0.00 | 0.48 | 0.24 | 81 | 1018.0 |
| 20260906080024 | 62 | 286 | 8.0 | 22.0 | 0.00 | 0.48 | 0.24 | 79 | 1017.9 |
| 20260906075524 | 61 | 289 | 8.0 | 22.0 | 0.00 | 0.48 | 0.24 | 79 | 1017.8 |
| 20260906075025 | 62 | 286 | 6.0 | 19.0 | 0.00 | 0.48 | 0.24 | 81 | 1017.7 |
| 20260906074503 | 62 | 293 | 4.0 | 17.0 | 0.00 | 0.48 | 0.24 | 80 | 1017.7 |
| 20260906074004 | 62 | 288 | 4.0 | 19.0 | 0.00 | 0.48 | 0.24 | 83 | 1017.7 |
| 20260906073504 | 61 | 287 | 6.0 | 19.0 | 0.00 | 0.48 | 0.24 | 84 | 1017.5 |
| 20260906073003 | 61 | 290 | 6.0 | 16.0 | 0.00 | 0.48 | 0.24 | 83 | 1017.4 |
| 20260906072503 | 60 | 295 | 5.0 | 15.0 | 0.00 | 0.48 | 0.24 | 85 | 1017.2 |
| 20260906072004 | 60 | 300 | 4.0 | 14.0 | 0.00 | 0.48 | 0.24 | 86 | 1017.3 |
| 20260906071525 | 60 | 285 | 5.0 | 22.0 | 0.00 | 0.48 | 0.24 | 85 | 1017.3 |
| 20260906071003 | 60 | 289 | 6.0 | 22.0 | 0.00 | 0.48 | 0.24 | 85 | 1017.2 |
| 20260906070525 | 60 | 306 | 5.0 | 16.0 | 0.00 | 0.48 | 0.24 | 86 | 1017.1 |
| 20260906070005 | 60 | 300 | 5.0 | 16.0 | 0.00 | 0.48 | 0.24 | 87 | 1017.1 |
| 20260906065524 | 59 | 302 | 4.0 | 16.0 | 0.00 | 0.48 | 0.24 | 87 | 1016.7 |
| 20260906065004 | 59 | 290 | 4.0 | 11.0 | 0.00 | 0.48 | 0.24 | 87 | 1016.9 |
| 20260906064505 | 59 | 280 | 3.0 | 11.0 | 0.00 | 0.48 | 0.24 | 87 | 1016.7 |
| 20260906064005 | 59 | 293 | 4.0 | 11.0 | 0.00 | 0.48 | 0.24 | 88 | 1016.6 |
| 20260906063504 | 59 | 296 | 5.0 | 13.0 | 0.00 | 0.48 | 0.24 | 87 | 1016.4 |
| 20260906063003 | 58 | 290 | 4.0 | 13.0 | 0.00 | 0.48 | 0.24 | 87 | 1016.5 |
| 20260906062525 | 58 | 307 | 3.0 | 13.0 | 0.00 | 0.48 | 0.24 | 90 | 1016.3 |
| 20260906062004 | 58 | 311 | 3.0 | 13.0 | 0.00 | 0.51 | 0.24 | 89 | 1016.3 |
| 20260906061503 | 58 | 295 | 4.0 | 11.0 | 0.00 | 0.51 | 0.24 | 89 | 1016.2 |
| 20260906061004 | 58 | 283 | 4.0 | 13.0 | 0.00 | 0.51 | 0.24 | 88 | 1016.3 |
| 20260906060504 | 58 | 292 | 5.0 | 14.0 | 0.00 | 0.51 | 0.24 | 88 | 1016.1 |
| 20260906060004 | 58 | 299 | 4.0 | 14.0 | 0.00 | 0.51 | 0.24 | 90 | 1016.0 |
| 20260906055503 | 57 | 291 | 4.0 | 13.0 | 0.00 | 0.51 | 0.24 | 90 | 1015.9 |
| 20260906055004 | 57 | 289 | 4.0 | 13.0 | 0.00 | 0.51 | 0.24 | 90 | 1015.8 |
| 20260906054524 | 57 | 285 | 3.0 | 10.0 | 0.00 | 0.51 | 0.24 | 91 | 1015.7 |
| 20260906054003 | 57 | 284 | 3.0 | 10.0 | 0.00 | 0.51 | 0.24 | 90 | 1015.6 |
| 20260906053525 | 57 | 285 | 3.0 | 10.0 | 0.00 | 0.51 | 0.24 | 90 | 1015.4 |
| 20260906053025 | 57 | 290 | 3.0 | 10.0 | 0.00 | 0.51 | 0.24 | 91 | 1015.3 |
| 20260906052504 | 56 | 291 | 4.0 | 11.0 | 0.00 | 0.51 | 0.24 | 91 | 1015.3 |
| 20260906052004 | 56 | 290 | 4.0 | 11.0 | 0.00 | 0.52 | 0.24 | 91 | 1015.3 |
| 20260906051524 | 56 | 285 | 3.0 | 11.0 | 0.00 | 0.52 | 0.24 | 92 | 1015.2 |
| 20260906051003 | 56 | 286 | 3.0 | 11.0 | 0.00 | 0.54 | 0.24 | 92 | 1015.2 |
| 20260906050504 | 56 | 293 | 3.0 | 8.0 | 0.00 | 0.54 | 0.24 | 92 | 1014.8 |
| 20260906050003 | 56 | 284 | 3.0 | 10.0 | 0.00 | 0.54 | 0.24 | 92 | 1014.8 |
| 20260906045503 | 56 | 277 | 4.0 | 13.0 | 0.00 | 0.54 | 0.24 | 91 | 1014.9 |
| 20260906045004 | 56 | 291 | 4.0 | 13.0 | 0.00 | 0.54 | 0.24 | 91 | 1014.7 |
| 20260906044504 | 56 | 295 | 4.0 | 11.0 | 0.00 | 0.54 | 0.24 | 91 | 1014.5 |
| 20260906044004 | 56 | 297 | 4.0 | 13.0 | 0.00 | 0.54 | 0.24 | 91 | 1014.5 |
| 20260906043504 | 56 | 300 | 4.0 | 13.0 | 0.00 | 0.54 | 0.24 | 91 | 1014.4 |
| 20260906043005 | 56 | 291 | 4.0 | 13.0 | 0.00 | 0.54 | 0.24 | 91 | 1014.4 |
| 20260906042503 | 56 | 289 | 4.0 | 13.0 | 0.00 | 0.54 | 0.24 | 92 | 1014.2 |
| 20260906042004 | 56 | 288 | 4.0 | 11.0 | 0.00 | 0.54 | 0.24 | 92 | 1014.1 |
| 20260906041503 | 56 | 292 | 4.0 | 11.0 | 0.00 | 0.54 | 0.24 | 92 | 1014.0 |
| 20260906041003 | 55 | 290 | 3.0 | 11.0 | 0.00 | 0.54 | 0.24 | 92 | 1013.9 |
| 20260906040503 | 56 | 290 | 4.0 | 15.0 | 0.00 | 0.54 | 0.24 | 92 | 1013.9 |
| 20260906040004 | 56 | 290 | 4.0 | 15.0 | 0.00 | 0.54 | 0.24 | 91 | 1013.6 |
| 20260906035503 | 55 | 292 | 3.0 | 13.0 | 0.00 | 0.54 | 0.24 | 91 | 1013.6 |
| 20260906035004 | 56 | 296 | 3.0 | 13.0 | 0.00 | 0.54 | 0.24 | 91 | 1013.7 |
| 20260906034503 | 56 | 304 | 4.0 | 10.0 | 0.00 | 0.54 | 0.24 | 91 | 1013.5 |
| 20260906034026 | 56 | 307 | 4.0 | 11.0 | 0.00 | 0.54 | 0.24 | 92 | 1013.3 |
| 20260906033504 | 56 | 279 | 4.0 | 16.0 | 0.00 | 0.54 | 0.24 | 92 | 1013.1 |
| 20260906033003 | 56 | 283 | 5.0 | 16.0 | 0.01 | 0.54 | 0.24 | 92 | 1013.1 |
| 20260906032525 | 56 | 298 | 5.0 | 16.0 | 0.02 | 0.54 | 0.24 | 92 | 1013.1 |
| 20260906032004 | 56 | 293 | 5.0 | 15.0 | 0.02 | 0.54 | 0.24 | 92 | 1013.0 |
| 20260906031503 | 56 | 290 | 5.0 | 16.0 | 0.02 | 0.54 | 0.24 | 92 | 1012.9 |
| 20260906031003 | 56 | 301 | 6.0 | 16.0 | 0.02 | 0.54 | 0.24 | 92 | 1012.7 |
| 20260906030504 | 56 | 298 | 7.0 | 16.0 | 0.02 | 0.55 | 0.24 | 93 | 1012.8 |
| 20260906030003 | 56 | 287 | 7.0 | 18.0 | 0.02 | 0.56 | 0.24 | 93 | 1012.5 |
| 20260906025503 | 56 | 282 | 8.0 | 21.0 | 0.02 | 0.57 | 0.24 | 93 | 1012.3 |
| 20260906025004 | 56 | 283 | 8.0 | 21.0 | 0.02 | 0.57 | 0.24 | 93 | 1012.2 |
| 20260906024503 | 56 | 300 | 8.0 | 21.0 | 0.02 | 0.57 | 0.24 | 94 | 1012.2 |
| 20260906024003 | 56 | 304 | 6.0 | 16.0 | 0.02 | 0.57 | 0.24 | 94 | 1012.0 |
| 20260906023504 | 56 | 292 | 5.0 | 14.0 | 0.02 | 0.57 | 0.24 | 94 | 1012.0 |
| 20260906023003 | 56 | 289 | 5.0 | 13.0 | 0.01 | 0.57 | 0.23 | 93 | 1011.8 |
| 20260906022503 | 56 | 295 | 4.0 | 13.0 | 0.00 | 0.56 | 0.22 | 93 | 1011.8 |
| 20260906022004 | 56 | 304 | 5.0 | 13.0 | 0.01 | 0.56 | 0.22 | 93 | 1011.9 |
| 20260906021503 | 56 | 305 | 5.0 | 15.0 | 0.01 | 0.57 | 0.22 | 93 | 1011.7 |
| 20260906021005 | 56 | 296 | 5.0 | 15.0 | 0.01 | 0.57 | 0.22 | 92 | 1011.6 |
| 20260906020503 | 56 | 291 | 4.0 | 11.0 | 0.01 | 0.57 | 0.22 | 92 | 1011.7 |
| 20260906020003 | 56 | 305 | 4.0 | 11.0 | 0.01 | 0.57 | 0.22 | 92 | 1011.7 |
| 20260906015503 | 56 | 309 | 4.0 | 14.0 | 0.01 | 0.57 | 0.22 | 92 | 1011.5 |
| 20260906015025 | 56 | 305 | 5.0 | 14.0 | 0.02 | 0.57 | 0.22 | 92 | 1011.4 |
| 20260906014503 | 56 | 322 | 5.0 | 16.0 | 0.02 | 0.56 | 0.22 | 93 | 1011.5 |
| 20260906014003 | 56 | 318 | 5.0 | 16.0 | 0.03 | 0.56 | 0.22 | 93 | 1011.4 |
| 20260906013504 | 56 | 288 | 5.0 | 16.0 | 0.05 | 0.56 | 0.22 | 93 | 1011.1 |
| 20260906013024 | 56 | 286 | 5.0 | 16.0 | 0.05 | 0.56 | 0.22 | 93 | 1011.2 |
| 20260906012504 | 56 | 282 | 4.0 | 14.0 | 0.05 | 0.56 | 0.22 | 94 | 1011.0 |
| 20260906012003 | 56 | 299 | 4.0 | 11.0 | 0.05 | 0.56 | 0.21 | 94 | 1011.2 |
| 20260906011503 | 56 | 312 | 3.0 | 9.0 | 0.05 | 0.56 | 0.21 | 95 | 1011.0 |
| 20260906011003 | 56 | 317 | 3.0 | 13.0 | 0.05 | 0.56 | 0.21 | 95 | 1011.1 |
| 20260906010504 | 56 | 327 | 4.0 | 13.0 | 0.09 | 0.56 | 0.21 | 95 | 1011.1 |
| 20260906010004 | 55 | 325 | 3.0 | 11.0 | 0.14 | 0.56 | 0.21 | 96 | 1011.1 |
| 20260906005525 | 55 | 337 | 3.0 | 11.0 | 0.14 | 0.56 | 0.21 | 96 | 1010.9 |
| 20260906005004 | 55 | 10 | 3.0 | 10.0 | 0.13 | 0.55 | 0.20 | 96 | 1010.9 |
| 20260906004504 | 55 | 18 | 2.0 | 8.0 | 0.12 | 0.54 | 0.19 | 96 | 1011.0 |
| 20260906004026 | 55 | 42 | 2.0 | 8.0 | 0.12 | 0.53 | 0.19 | 96 | 1010.8 |
| 20260906003504 | 55 | 5 | 2.0 | 7.0 | 0.10 | 0.52 | 0.17 | 96 | 1011.0 |
| 20260906003004 | 55 | 349 | 2.0 | 7.0 | 0.10 | 0.51 | 0.17 | 96 | 1011.0 |
| 20260906002504 | 55 | 331 | 3.0 | 10.0 | 0.11 | 0.51 | 0.17 | 96 | 1011.0 |
| 20260906002003 | 55 | 300 | 3.0 | 10.0 | 0.11 | 0.51 | 0.17 | 96 | 1011.2 |
| 20260906001503 | 55 | 292 | 3.0 | 13.0 | 0.11 | 0.54 | 0.17 | 96 | 1011.1 |
| 20260906001003 | 55 | 317 | 3.0 | 13.0 | 0.11 | 0.54 | 0.16 | 95 | 1011.3 |
| 20260906000503 | 55 | 327 | 3.0 | 9.0 | 0.07 | 0.50 | 0.13 | 95 | 1011.4 |
| 20260906000026 | 55 | 24 | 2.0 | 9.0 | 0.02 | 0.45 | 0.07 | 95 | 1011.1 |
| 20260905235503 | 55 | 59 | 2.0 | 9.0 | 0.02 | 0.45 | 0.07 | 95 | 1011.0 |
| 20260905235004 | 55 | 24 | 2.0 | 7.0 | 0.07 | 0.46 | 0.07 | 95 | 1011.1 |
| 20260905234504 | 55 | 11 | 1.0 | 4.0 | 0.07 | 0.46 | 0.07 | 96 | 1011.1 |
| 20260905234004 | 55 | 7 | 2.0 | 4.0 | 0.06 | 0.46 | 0.07 | 96 | 1011.1 |
| 20260905233504 | 55 | 342 | 2.0 | 6.0 | 0.07 | 0.47 | 0.07 | 96 | 1011.1 |
| 20260905233025 | 55 | 358 | 2.0 | 6.0 | 0.07 | 0.47 | 0.07 | 96 | 1011.0 |
| 20260905232504 | 55 | 23 | 2.0 | 6.0 | 0.06 | 0.46 | 0.06 | 96 | 1011.1 |
| 20260905232003 | 55 | 352 | 2.0 | 7.0 | 0.06 | 0.46 | 0.06 | 96 | 1010.9 |
| 20260905231504 | 54 | 354 | 2.0 | 7.0 | 0.06 | 0.46 | 0.06 | 96 | 1011.0 |
| 20260905231003 | 54 | 52 | 2.0 | 7.0 | 0.06 | 0.46 | 0.06 | 96 | 1011.0 |
| 20260905230503 | 54 | 302 | 2.0 | 8.0 | 0.06 | 0.46 | 0.06 | 96 | 1010.9 |
| 20260905230004 | 54 | 289 | 2.0 | 14.0 | 0.06 | 0.46 | 0.06 | 95 | 1011.0 |
| 20260905225503 | 55 | 7 | 2.0 | 14.0 | 0.06 | 0.46 | 0.06 | 94 | 1011.0 |
| 20260905225003 | 55 | 32 | 2.0 | 6.0 | 0.01 | 0.41 | 0.00 | 93 | 1011.1 |
| 20260905224525 | 55 | 9 | 3.0 | 8.0 | 0.03 | 0.41 | 0.00 | 93 | 1011.0 |
| 20260905224003 | 55 | 28 | 3.0 | 8.0 | 0.03 | 0.42 | 0.00 | 93 | 1011.0 |
| 20260905223525 | 55 | 30 | 2.0 | 6.0 | 0.03 | 0.41 | 0.00 | 94 | 1011.1 |
| 20260905223003 | 55 | 27 | 2.0 | 6.0 | 0.03 | 0.41 | 0.00 | 94 | 1011.0 |
| 20260905222503 | 55 | 33 | 2.0 | 6.0 | 0.03 | 0.41 | 0.00 | 95 | 1010.9 |
| 20260905222004 | 55 | 55 | 2.0 | 4.0 | 0.04 | 0.42 | 0.00 | 95 | 1010.8 |
| 20260905221504 | 55 | 29 | 2.0 | 6.0 | 0.04 | 0.46 | 0.00 | 94 | 1011.0 |
| 20260905221005 | 55 | 335 | 2.0 | 9.0 | 0.04 | 0.46 | 0.00 | 94 | 1011.0 |
| 20260905220503 | 55 | 313 | 2.0 | 9.0 | 0.05 | 0.46 | 0.00 | 94 | 1011.0 |
| 20260905220007 | 56 | 352 | 2.0 | 8.0 | 0.05 | 0.46 | 0.00 | 94 | 1011.0 |
| 20260905215503 | 56 | 28 | 3.0 | 8.0 | 0.05 | 0.47 | 0.46 | 94 | 1011.0 |
| 20260905215004 | 56 | 34 | 2.0 | 8.0 | 0.05 | 0.49 | 0.46 | 94 | 1011.0 |
| 20260905214503 | 56 | 36 | 1.0 | 3.0 | 0.02 | 0.47 | 0.44 | 94 | 1011.0 |
| 20260905214003 | 55 | 347 | 2.0 | 6.0 | 0.02 | 0.47 | 0.44 | 93 | 1010.6 |
| 20260905213503 | 56 | 318 | 2.0 | 9.0 | 0.02 | 0.48 | 0.44 | 93 | 1010.7 |
| 20260905213024 | 56 | 353 | 2.0 | 9.0 | 0.02 | 0.48 | 0.44 | 94 | 1010.7 |
| 20260905212504 | 56 | 11 | 1.0 | 3.0 | 0.02 | 0.48 | 0.43 | 94 | 1010.8 |
| 20260905212004 | 56 | 350 | 1.0 | 4.0 | 0.02 | 0.48 | 0.43 | 94 | 1010.6 |
| 20260905211504 | 56 | 2 | 1.0 | 4.0 | 0.02 | 0.48 | 0.43 | 93 | 1010.6 |
| 20260905211004 | 57 | 318 | 1.0 | 6.0 | 0.02 | 0.48 | 0.43 | 93 | 1010.6 |
| 20260905210503 | 57 | 32 | 2.0 | 6.0 | 0.01 | 0.47 | 0.42 | 92 | 1010.7 |
| 20260905210004 | 57 | 330 | 2.0 | 13.0 | 0.01 | 0.47 | 0.41 | 91 | 1010.8 |
| 20260905205503 | 57 | 314 | 3.0 | 13.0 | 0.01 | 0.47 | 0.41 | 90 | 1010.7 |
| 20260905205004 | 57 | 322 | 2.0 | 13.0 | 0.01 | 0.47 | 0.41 | 91 | 1010.6 |
| 20260905204503 | 57 | 332 | 2.0 | 7.0 | 0.01 | 0.47 | 0.41 | 91 | 1010.5 |
| 20260905204003 | 57 | 354 | 2.0 | 6.0 | 0.01 | 0.47 | 0.41 | 92 | 1010.7 |
| 20260905203524 | 57 | 3 | 1.0 | 6.0 | 0.01 | 0.47 | 0.41 | 92 | 1010.6 |
| 20260905203003 | 57 | 17 | 1.0 | 6.0 | 0.01 | 0.47 | 0.41 | 92 | 1010.6 |
| 20260905202503 | 57 | 37 | 2.0 | 6.0 | 0.01 | 0.47 | 0.41 | 91 | 1010.6 |
| 20260905202025 | 57 | 51 | 1.0 | 4.0 | 0.00 | 0.46 | 0.41 | 91 | 1010.7 |
| 20260905201504 | 57 | 43 | 2.0 | 4.0 | 0.00 | 0.46 | 0.41 | 91 | 1010.7 |
| 20260905201004 | 57 | 36 | 2.0 | 4.0 | 0.00 | 0.46 | 0.41 | 91 | 1010.7 |
| 20260905200524 | 57 | 61 | 2.0 | 3.0 | 0.00 | 0.46 | 0.41 | 91 | 1010.8 |
| 20260905200003 | 57 | 57 | 2.0 | 6.0 | 0.00 | 0.46 | 0.41 | 90 | 1010.6 |
| 20260905195524 | 57 | 25 | 2.0 | 6.0 | 0.00 | 0.46 | 0.41 | 91 | 1010.7 |
| 20260905195004 | 58 | 41 | 2.0 | 6.0 | 0.00 | 0.46 | 0.41 | 90 | 1010.5 |
| 20260905194504 | 57 | 53 | 2.0 | 6.0 | 0.00 | 0.46 | 0.41 | 90 | 1010.6 |
| 20260905194004 | 57 | 51 | 2.0 | 8.0 | 0.00 | 0.46 | 0.41 | 90 | 1010.7 |
| 20260905193503 | 57 | 51 | 2.0 | 8.0 | 0.00 | 0.46 | 0.41 | 90 | 1010.6 |
| 20260905193003 | 57 | 31 | 2.0 | 7.0 | 0.00 | 0.46 | 0.41 | 90 | 1010.6 |
| 20260905192503 | 57 | 10 | 2.0 | 7.0 | 0.00 | 0.47 | 0.41 | 90 | 1010.6 |
| 20260905192003 | 57 | 42 | 2.0 | 10.0 | 0.00 | 0.47 | 0.41 | 90 | 1010.6 |
| 20260905191524 | 57 | 42 | 2.0 | 10.0 | 0.00 | 0.48 | 0.41 | 91 | 1010.7 |
| 20260905191003 | 57 | 27 | 2.0 | 6.0 | 0.00 | 0.48 | 0.41 | 91 | 1010.6 |
| 20260905190503 | 57 | 36 | 2.0 | 6.0 | 0.00 | 0.48 | 0.41 | 91 | 1010.5 |
| 20260905190003 | 57 | 33 | 2.0 | 4.0 | 0.00 | 0.48 | 0.41 | 91 | 1010.6 |
| 20260905185503 | 57 | 356 | 2.0 | 6.0 | 0.00 | 0.48 | 0.41 | 91 | 1010.5 |
| 20260905185003 | 57 | 326 | 2.0 | 9.0 | 0.00 | 0.48 | 0.41 | 91 | 1010.6 |
| 20260905184504 | 57 | 343 | 2.0 | 9.0 | 0.00 | 0.48 | 0.41 | 91 | 1010.5 |
| 20260905184024 | 57 | 7 | 2.0 | 7.0 | 0.00 | 0.48 | 0.41 | 91 | 1010.5 |
| 20260905183525 | 57 | 6 | 2.0 | 4.0 | 0.00 | 0.48 | 0.41 | 91 | 1010.5 |
| 20260905183004 | 57 | 21 | 2.0 | 7.0 | 0.00 | 0.48 | 0.41 | 91 | 1010.4 |
| 20260905182503 | 57 | 54 | 2.0 | 7.0 | 0.00 | 0.49 | 0.41 | 91 | 1010.2 |
| 20260905182025 | 57 | 87 | 2.0 | 9.0 | 0.00 | 0.52 | 0.41 | 91 | 1010.4 |
| 20260905181524 | 57 | 215 | 2.0 | 9.0 | 0.00 | 0.55 | 0.41 | 91 | 1010.3 |
| 20260905181003 | 57 | 38 | 2.0 | 7.0 | 0.00 | 0.56 | 0.41 | 91 | 1010.1 |
| 20260905180504 | 57 | 37 | 2.0 | 7.0 | 0.00 | 0.57 | 0.41 | 91 | 1010.1 |
| 20260905180004 | 57 | 14 | 2.0 | 9.0 | 0.00 | 0.57 | 0.41 | 91 | 1010.1 |
| 20260905175503 | 57 | 356 | 2.0 | 13.0 | 0.00 | 0.57 | 0.41 | 90 | 1009.9 |
| 20260905175004 | 57 | 26 | 2.0 | 13.0 | 0.00 | 0.57 | 0.41 | 91 | 1010.0 |
| 20260905174503 | 57 | 65 | 2.0 | 7.0 | 0.00 | 0.57 | 0.41 | 91 | 1009.8 |
| 20260905174003 | 57 | 88 | 2.0 | 7.0 | 0.00 | 0.57 | 0.41 | 91 | 1009.8 |
| 20260905173503 | 57 | 48 | 2.0 | 6.0 | 0.00 | 0.57 | 0.41 | 90 | 1009.6 |
| 20260905173003 | 57 | 51 | 2.0 | 6.0 | 0.00 | 0.57 | 0.41 | 91 | 1009.8 |
| 20260905172504 | 57 | 83 | 2.0 | 8.0 | 0.00 | 0.58 | 0.41 | 92 | 1009.9 |
| 20260905172004 | 57 | 109 | 1.0 | 8.0 | 0.00 | 0.58 | 0.41 | 93 | 1009.9 |
| 20260905171503 | 57 | 118 | 1.0 | 4.0 | 0.00 | 0.58 | 0.41 | 94 | 1009.9 |
| 20260905171004 | 57 | 106 | 1.0 | 4.0 | 0.00 | 0.58 | 0.41 | 94 | 1009.8 |
| 20260905170504 | 57 | 98 | 1.0 | 3.0 | 0.00 | 0.58 | 0.41 | 94 | 1009.8 |
| 20260905170003 | 57 | 95 | 1.0 | 3.0 | 0.00 | 0.58 | 0.41 | 94 | 1009.6 |
| 20260905165504 | 57 | 94 | 1.0 | 4.0 | 0.00 | 0.58 | 0.41 | 93 | 1009.8 |
| 20260905165003 | 57 | 100 | 2.0 | 6.0 | 0.00 | 0.58 | 0.41 | 92 | 1009.9 |
| 20260905164524 | 57 | 93 | 2.0 | 6.0 | 0.00 | 0.58 | 0.41 | 91 | 1009.6 |
| 20260905164004 | 57 | 80 | 2.0 | 4.0 | 0.00 | 0.58 | 0.41 | 91 | 1009.5 |
| 20260905163503 | 57 | 78 | 2.0 | 6.0 | 0.00 | 0.58 | 0.41 | 89 | 1009.4 |
| 20260905163003 | 57 | 63 | 2.0 | 6.0 | 0.00 | 0.58 | 0.41 | 89 | 1009.4 |
| 20260905162504 | 57 | 46 | 2.0 | 6.0 | 0.00 | 0.58 | 0.41 | 89 | 1009.3 |
| 20260905162003 | 57 | 65 | 2.0 | 7.0 | 0.00 | 0.58 | 0.41 | 88 | 1009.4 |
| 20260905161524 | 57 | 84 | 2.0 | 7.0 | 0.00 | 0.58 | 0.41 | 87 | 1009.3 |
| 20260905161003 | 58 | 70 | 2.0 | 7.0 | 0.00 | 0.58 | 0.41 | 86 | 1009.2 |
| 20260905160525 | 58 | 65 | 2.0 | 6.0 | 0.00 | 0.58 | 0.41 | 87 | 1009.2 |
| 20260905160004 | 58 | 70 | 2.0 | 6.0 | 0.00 | 0.58 | 0.41 | 86 | 1009.2 |
| 20260905155504 | 58 | 59 | 2.0 | 6.0 | 0.00 | 0.58 | 0.41 | 87 | 1009.1 |
| 20260905155003 | 58 | 51 | 3.0 | 9.0 | 0.00 | 0.58 | 0.41 | 86 | 1009.2 |
| 20260905154502 | 58 | 47 | 2.0 | 9.0 | 0.00 | 0.58 | 0.41 | 87 | 1009.1 |
| 20260905154003 | 58 | 48 | 2.0 | 8.0 | 0.00 | 0.59 | 0.41 | 88 | 1009.0 |
| 20260905153503 | 58 | 64 | 3.0 | 8.0 | 0.00 | 0.59 | 0.41 | 88 | 1009.1 |
| 20260905153003 | 59 | 82 | 2.0 | 7.0 | 0.00 | 0.59 | 0.41 | 89 | 1009.0 |
| 20260905152503 | 58 | 59 | 2.0 | 6.0 | 0.00 | 0.59 | 0.41 | 89 | 1008.9 |
| 20260905152003 | 58 | 56 | 2.0 | 6.0 | 0.00 | 0.60 | 0.41 | 90 | 1008.9 |
| 20260905151504 | 58 | 69 | 2.0 | 9.0 | 0.00 | 0.61 | 0.41 | 91 | 1009.1 |
| 20260905151024 | 58 | 65 | 3.0 | 9.0 | 0.00 | 0.62 | 0.41 | 90 | 1009.2 |
| 20260905150503 | 58 | 64 | 3.0 | 9.0 | 0.00 | 0.63 | 0.41 | 90 | 1009.1 |
| 20260905150024 | 58 | 65 | 3.0 | 9.0 | 0.00 | 0.63 | 0.41 | 90 | 1008.9 |
| 20260905145524 | 58 | 68 | 3.0 | 9.0 | 0.00 | 0.63 | 0.41 | 91 | 1009.1 |
| 20260905145003 | 59 | 40 | 3.0 | 9.0 | 0.00 | 0.64 | 0.41 | 89 | 1009.3 |
| 20260905144504 | 59 | 28 | 3.0 | 10.0 | 0.00 | 0.65 | 0.41 | 88 | 1009.1 |
| 20260905144025 | 59 | 56 | 3.0 | 10.0 | 0.00 | 0.67 | 0.41 | 88 | 1009.0 |
| 20260905143503 | 59 | 59 | 2.0 | 7.0 | 0.00 | 0.69 | 0.41 | 90 | 1008.9 |
| 20260905143004 | 59 | 54 | 2.0 | 8.0 | 0.00 | 0.70 | 0.41 | 90 | 1009.1 |
| 20260905142503 | 58 | 58 | 2.0 | 9.0 | 0.00 | 0.72 | 0.41 | 91 | 1009.1 |
| 20260905142024 | 58 | 80 | 2.0 | 9.0 | 0.00 | 0.72 | 0.41 | 91 | 1009.2 |
| 20260905141503 | 58 | 95 | 2.0 | 8.0 | 0.00 | 0.74 | 0.41 | 90 | 1009.0 |
| 20260905141003 | 59 | 95 | 2.0 | 7.0 | 0.00 | 0.74 | 0.41 | 90 | 1009.1 |
| 20260905140502 | 58 | 72 | 2.0 | 6.0 | 0.00 | 0.76 | 0.41 | 93 | 1009.2 |
| 20260905140005 | 58 | 67 | 2.0 | 4.0 | 0.00 | 0.76 | 0.41 | 95 | 1008.9 |
| 20260905135503 | 56 | 67 | 2.0 | 4.0 | 0.00 | 0.77 | 0.41 | 95 | 1009.2 |
| 20260905135003 | 56 | 59 | 2.0 | 8.0 | 0.00 | 0.78 | 0.41 | 94 | 1009.4 |
| 20260905134503 | 56 | 73 | 2.0 | 8.0 | 0.01 | 0.80 | 0.41 | 93 | 1009.2 |
| 20260905134024 | 56 | 53 | 2.0 | 6.0 | 0.02 | 0.81 | 0.41 | 94 | 1009.4 |
| 20260905133503 | 55 | 19 | 2.0 | 6.0 | 0.03 | 0.82 | 0.41 | 94 | 1009.2 |
| 20260905133003 | 55 | 33 | 2.0 | 6.0 | 0.04 | 0.82 | 0.41 | 94 | 1009.3 |
| 20260905132503 | 55 | 89 | 1.0 | 6.0 | 0.06 | 0.82 | 0.41 | 94 | 1009.2 |
| 20260905131503 | 55 | 39 | 2.0 | 8.0 | 0.08 | 0.82 | 0.41 | 94 | 1009.1 |
| 20260905131004 | 55 | 36 | 2.0 | 8.0 | 0.08 | 0.82 | 0.41 | 94 | 1009.3 |
| 20260905130503 | 55 | 68 | 2.0 | 8.0 | 0.08 | 0.82 | 0.41 | 93 | 1009.0 |
| 20260905130004 | 54 | 195 | 3.0 | 8.0 | 0.08 | 0.82 | 0.41 | 94 | 1009.2 |
| 20260905125503 | 54 | 259 | 2.0 | 8.0 | 0.08 | 0.82 | 0.41 | 94 | 1009.3 |
| 20260905125004 | 54 | 307 | 2.0 | 7.0 | 0.08 | 0.82 | 0.40 | 94 | 1009.3 |
| 20260905124503 | 55 | 325 | 3.0 | 8.0 | 0.07 | 0.82 | 0.40 | 93 | 1009.3 |
| 20260905124003 | 55 | 335 | 3.0 | 8.0 | 0.07 | 0.81 | 0.39 | 93 | 1009.3 |
| 20260905123504 | 56 | 347 | 3.0 | 8.0 | 0.05 | 0.80 | 0.37 | 92 | 1009.5 |